Time,TemperatureF,DewpointF,PressureIn,WindDirection,WindDirectionDegrees,WindSpeedMPH,WindSpeedGustMPH,Humidity,HourlyPrecipIn,Conditions,Clouds,dailyrainin,SoftwareType,DateUTC
2013-03-22 00:02:00,19.0,13.0,-100.00,NE,55,1.0,1.0,76,0.00,,,-99.99,,2013-03-22 05:02:00,
2013-03-22 00:12:00,19.0,13.0,-100.00,NE,50,1.0,2.0,77,0.00,,,-99.99,,2013-03-22 05:12:00,
2013-03-22 00:22:00,19.0,13.0,-100.00,NE,45,1.0,2.0,78,0.00,,,-99.99,,2013-03-22 05:22:00,
2013-03-22 00:32:00,18.0,13.0,-100.00,ENE,60,1.0,2.0,79,0.00,,,-99.99,,2013-03-22 05:32:00,
2013-03-22 00:42:00,18.0,13.0,-100.00,ENE,60,1.0,2.0,79,0.00,,,-99.99,,2013-03-22 05:42:00,
2013-03-22 00:52:00,18.0,13.0,-100.00,ENE,60,1.0,2.0,80,0.00,,,-99.99,,2013-03-22 05:52:00,
2013-03-22 01:02:00,18.0,13.0,-100.00,ENE,60,1.0,2.0,80,0.00,,,-99.99,,2013-03-22 06:02:00,
2013-03-22 01:12:00,18.0,14.0,-100.00,NE,50,1.0,2.0,81,0.00,,,-99.99,,2013-03-22 06:12:00,
2013-03-22 01:22:00,18.0,14.0,-100.00,NE,45,2.0,3.0,82,0.00,,,-99.99,,2013-03-22 06:22:00,
2013-03-22 01:32:00,18.0,14.0,-100.00,NE,50,1.0,4.0,83,0.00,,,-99.99,,2013-03-22 06:32:00,
2013-03-22 01:42:00,18.0,14.0,-100.00,NE,50,1.0,4.0,83,0.00,,,-99.99,,2013-03-22 06:42:00,
2013-03-22 01:52:00,18.0,14.0,-100.00,ENE,60,2.0,4.0,83,0.00,,,-99.99,,2013-03-22 06:52:00,
2013-03-22 02:02:00,18.0,14.0,-100.00,ENE,60,2.0,4.0,83,0.00,,,-99.99,,2013-03-22 07:02:00,
2013-03-22 02:12:00,18.0,14.0,-100.00,ENE,60,2.0,4.0,84,0.00,,,-99.99,,2013-03-22 07:12:00,
2013-03-22 02:22:00,18.0,14.0,-100.00,NE,50,1.0,3.0,85,0.00,,,-99.99,,2013-03-22 07:22:00,
2013-03-22 02:32:00,17.0,14.0,-100.00,NE,55,1.0,2.0,85,0.00,,,-99.99,,2013-03-22 07:32:00,
2013-03-22 02:42:00,17.0,14.0,-100.00,NE,55,1.0,2.0,85,0.00,,,-99.99,,2013-03-22 07:42:00,
2013-03-22 02:52:00,17.0,14.0,-100.00,NE,50,2.0,4.0,85,0.00,,,-99.99,,2013-03-22 07:52:00,
2013-03-22 03:03:00,17.0,14.0,-100.00,NE,50,2.0,4.0,85,0.00,,,-99.99,,2013-03-22 08:03:00,
2013-03-22 03:12:00,17.0,14.0,-100.00,NE,40,2.0,4.0,86,0.00,,,-99.99,,2013-03-22 08:12:00,
2013-03-22 03:22:00,17.0,14.0,-100.00,NE,40,2.0,4.0,86,0.00,,,-99.99,,2013-03-22 08:22:00,
2013-03-22 03:32:00,17.0,14.0,-100.00,NE,55,1.0,4.0,87,0.00,,,-99.99,,2013-03-22 08:32:00,
2013-03-22 03:42:00,17.0,14.0,-100.00,NE,55,1.0,4.0,87,0.00,,,-99.99,,2013-03-22 08:42:00,
2013-03-22 03:52:00,17.0,14.0,-100.00,ENE,60,2.0,4.0,87,0.00,,,-99.99,,2013-03-22 08:52:00,
2013-03-22 04:02:00,17.0,14.0,-100.00,ENE,60,2.0,4.0,87,0.00,,,-99.99,,2013-03-22 09:02:00,
2013-03-22 04:12:00,17.0,14.0,-100.00,NE,40,3.0,4.0,87,0.00,,,-99.99,,2013-03-22 09:12:00,
2013-03-22 04:22:00,17.0,14.0,-100.00,NE,55,4.0,6.0,87,0.00,,,-99.99,,2013-03-22 09:22:00,
2013-03-22 04:32:00,17.0,14.0,-100.00,ENE,70,5.0,6.0,87,0.00,,,-99.99,,2013-03-22 09:32:00,
2013-03-22 04:42:00,17.0,14.0,-100.00,ENE,70,5.0,6.0,87,0.00,,,-99.99,,2013-03-22 09:42:00,
2013-03-22 04:53:00,16.0,13.0,-100.00,ENE,65,3.0,5.0,87,0.00,,,-99.99,,2013-03-22 09:53:00,
2013-03-22 05:03:00,16.0,13.0,-100.00,ENE,65,3.0,5.0,87,0.00,,,-99.99,,2013-03-22 10:03:00,
2013-03-22 05:12:00,16.0,13.0,-100.00,ENE,70,2.0,4.0,87,0.00,,,-99.99,,2013-03-22 10:12:00,
2013-03-22 05:22:00,16.0,13.0,-100.00,East,85,2.0,3.0,87,0.00,,,-99.99,,2013-03-22 10:22:00,
2013-03-22 05:32:00,16.0,13.0,-100.00,East,85,2.0,3.0,87,0.00,,,-99.99,,2013-03-22 10:32:00,
2013-03-22 05:42:00,16.0,13.0,-100.00,East,85,2.0,3.0,87,0.00,,,-99.99,,2013-03-22 10:42:00,
2013-03-22 05:52:00,15.0,13.0,-100.00,ENE,70,2.0,4.0,88,0.00,,,-99.99,,2013-03-22 10:52:00,
2013-03-22 06:03:00,15.0,13.0,-100.00,ENE,70,2.0,4.0,88,0.00,,,-99.99,,2013-03-22 11:03:00,
2013-03-22 06:12:00,15.0,13.0,-100.00,East,80,2.0,4.0,88,0.00,,,-99.99,,2013-03-22 11:12:00,
2013-03-22 06:22:00,15.0,12.0,-100.00,East,80,2.0,3.0,88,0.00,,,-99.99,,2013-03-22 11:22:00,
2013-03-22 06:33:00,15.0,12.0,-100.00,East,85,1.0,2.0,88,0.00,,,-99.99,,2013-03-22 11:33:00,
2013-03-22 06:42:00,15.0,12.0,-100.00,East,85,1.0,2.0,88,0.00,,,-99.99,,2013-03-22 11:42:00,
2013-03-22 06:52:00,15.0,12.0,-100.00,ENE,65,2.0,2.0,88,0.00,,,-99.99,,2013-03-22 11:52:00,
2013-03-22 07:02:00,15.0,12.0,-100.00,ENE,65,3.0,4.0,88,0.00,,,-99.99,,2013-03-22 12:02:00,
2013-03-22 07:12:00,15.0,12.0,-100.00,ENE,70,4.0,4.0,88,0.00,,,-99.99,,2013-03-22 12:12:00,
2013-03-22 07:22:00,15.0,12.0,-100.00,ENE,75,3.0,4.0,88,0.00,,,-99.99,,2013-03-22 12:22:00,
2013-03-22 07:32:00,15.0,12.0,-100.00,East,80,1.0,2.0,88,0.00,,,-99.99,,2013-03-22 12:32:00,
2013-03-22 07:42:00,15.0,12.0,-100.00,East,80,1.0,2.0,88,0.00,,,-99.99,,2013-03-22 12:42:00,
2013-03-22 07:52:00,15.0,13.0,-100.00,NE,50,1.0,2.0,88,0.00,,,-99.99,,2013-03-22 12:52:00,
2013-03-22 08:02:00,15.0,13.0,-100.00,NE,50,1.0,2.0,88,0.00,,,-99.99,,2013-03-22 13:02:00,
2013-03-22 08:12:00,16.0,13.0,-100.00,ENE,60,2.0,4.0,88,0.00,,,-99.99,,2013-03-22 13:12:00,
2013-03-22 08:22:00,16.0,14.0,-100.00,NE,40,2.0,3.0,88,0.00,,,-99.99,,2013-03-22 13:22:00,
2013-03-22 08:32:00,18.0,15.0,-100.00,NE,35,2.0,4.0,88,0.00,,,-99.99,,2013-03-22 13:32:00,
2013-03-22 08:42:00,18.0,15.0,-100.00,NE,35,2.0,4.0,88,0.00,,,-99.99,,2013-03-22 13:42:00,
2013-03-22 08:52:00,18.0,15.0,-100.00,ENE,65,4.0,6.0,86,0.00,,,-99.99,,2013-03-22 13:52:00,
2013-03-22 09:02:00,18.0,15.0,-100.00,ENE,65,4.0,6.0,86,0.00,,,-99.99,,2013-03-22 14:02:00,
2013-03-22 09:12:00,19.0,15.0,-100.00,ENE,70,4.0,7.0,84,0.00,,,-99.99,,2013-03-22 14:12:00,
2013-03-22 09:22:00,20.0,16.0,-100.00,ENE,75,4.0,8.0,82,0.00,,,-99.99,,2013-03-22 14:22:00,
2013-03-22 09:32:00,21.0,15.0,-100.00,East,100,6.0,9.0,77,0.00,,,-99.99,,2013-03-22 14:32:00,
2013-03-22 09:42:00,21.0,15.0,-100.00,East,100,6.0,9.0,77,0.00,,,-99.99,,2013-03-22 14:42:00,
2013-03-22 09:52:00,22.0,15.0,-100.00,ENE,70,7.0,11.0,72,0.00,,,-99.99,,2013-03-22 14:52:00,
2013-03-22 10:02:00,22.0,15.0,-100.00,ENE,70,7.0,11.0,72,0.00,,,-99.99,,2013-03-22 15:02:00,
2013-03-22 10:12:00,22.0,15.0,-100.00,East,85,8.0,11.0,70,0.00,,,-99.99,,2013-03-22 15:12:00,
2013-03-22 10:22:00,23.0,15.0,-100.00,East,85,6.0,12.0,68,0.00,,,-99.99,,2013-03-22 15:22:00,
2013-03-22 10:32:00,24.0,14.0,-100.00,East,100,7.0,10.0,65,0.00,,,-99.99,,2013-03-22 15:32:00,
2013-03-22 10:42:00,24.0,14.0,-100.00,East,100,7.0,10.0,65,0.00,,,-99.99,,2013-03-22 15:42:00,
2013-03-22 10:52:00,24.0,13.0,-100.00,ENE,70,9.0,12.0,61,0.00,,,-99.99,,2013-03-22 15:52:00,
2013-03-22 11:02:00,24.0,13.0,-100.00,ENE,70,9.0,12.0,61,0.00,,,-99.99,,2013-03-22 16:02:00,
2013-03-22 11:13:00,25.0,13.0,-100.00,ENE,75,7.0,13.0,61,0.00,,,-99.99,,2013-03-22 16:13:00,
2013-03-22 11:22:00,25.0,13.0,-100.00,East,85,8.0,13.0,59,0.00,,,-99.99,,2013-03-22 16:22:00,
2013-03-22 11:32:00,25.0,12.0,-100.00,ENE,60,7.0,11.0,57,0.00,,,-99.99,,2013-03-22 16:32:00,
2013-03-22 11:42:00,25.0,12.0,-100.00,ENE,60,7.0,11.0,57,0.00,,,-99.99,,2013-03-22 16:42:00,
2013-03-22 11:52:00,26.0,13.0,-100.00,ESE,105,6.0,9.0,57,0.00,,,-99.99,,2013-03-22 16:52:00,
2013-03-22 12:03:00,26.0,13.0,-100.00,ESE,105,6.0,9.0,57,0.00,,,-99.99,,2013-03-22 17:03:00,
2013-03-22 12:12:00,28.0,14.0,-100.00,East,100,7.0,12.0,56,0.00,,,-99.99,,2013-03-22 17:12:00,
2013-03-22 12:23:00,28.0,14.0,-100.00,SE,145,7.0,11.0,55,0.00,,,-99.99,,2013-03-22 17:23:00,
2013-03-22 12:32:00,29.0,15.0,-100.00,SSE,150,6.0,9.0,54,0.00,,,-99.99,,2013-03-22 17:32:00,
2013-03-22 12:42:00,29.0,15.0,-100.00,SSE,150,6.0,9.0,54,0.00,,,-99.99,,2013-03-22 17:42:00,
2013-03-22 12:52:00,27.0,13.0,-100.00,SSE,150,6.0,10.0,54,0.00,,,-99.99,,2013-03-22 17:52:00,
2013-03-22 13:02:00,27.0,13.0,-100.00,SSE,150,6.0,10.0,54,0.00,,,-99.99,,2013-03-22 18:02:00,
2013-03-22 13:12:00,27.0,13.0,-100.00,SE,140,7.0,10.0,54,0.00,,,-99.99,,2013-03-22 18:12:00,
2013-03-22 13:22:00,28.0,14.0,-100.00,SSE,155,7.0,10.0,55,0.00,,,-99.99,,2013-03-22 18:22:00,
2013-03-22 13:33:00,31.0,17.0,-100.00,SSW,200,6.0,8.0,54,0.00,,,-99.99,,2013-03-22 18:33:00,
2013-03-22 13:42:00,31.0,17.0,-100.00,SSW,200,6.0,8.0,54,0.00,,,-99.99,,2013-03-22 18:42:00,
2013-03-22 13:52:00,29.0,14.0,-100.00,SE,145,4.0,11.0,52,0.00,,,-99.99,,2013-03-22 18:52:00,
2013-03-22 14:02:00,29.0,14.0,-100.00,SE,145,4.0,11.0,52,0.00,,,-99.99,,2013-03-22 19:02:00,
2013-03-22 14:12:00,30.0,15.0,-100.00,South,180,6.0,10.0,52,0.00,,,-99.99,,2013-03-22 19:12:00,
2013-03-22 14:22:00,31.0,16.0,-100.00,SSE,165,2.0,9.0,52,0.00,,,-99.99,,2013-03-22 19:22:00,
2013-03-22 14:32:00,34.0,17.0,-100.00,SSW,205,6.0,8.0,50,0.00,,,-99.99,,2013-03-22 19:32:00,
2013-03-22 14:42:00,34.0,17.0,-100.00,SSW,205,6.0,8.0,50,0.00,,,-99.99,,2013-03-22 19:42:00,
2013-03-22 14:52:00,33.0,15.0,-100.00,South,185,2.0,6.0,48,0.00,,,-99.99,,2013-03-22 19:52:00,
2013-03-22 15:02:00,33.0,15.0,-100.00,South,185,2.0,6.0,48,0.00,,,-99.99,,2013-03-22 20:02:00,
2013-03-22 15:12:00,33.0,16.0,-100.00,SSW,205,4.0,9.0,48,0.00,,,-99.99,,2013-03-22 20:12:00,
2013-03-22 15:22:00,33.0,15.0,-100.00,SE,145,4.0,7.0,48,0.00,,,-99.99,,2013-03-22 20:22:00,
2013-03-22 15:32:00,34.0,16.0,-100.00,SW,215,3.0,7.0,48,0.00,,,-99.99,,2013-03-22 20:32:00,
2013-03-22 15:42:00,34.0,16.0,-100.00,SW,215,3.0,7.0,48,0.00,,,-99.99,,2013-03-22 20:42:00,
2013-03-22 15:52:00,33.0,16.0,-100.00,SSE,165,4.0,9.0,49,0.00,,,-99.99,,2013-03-22 20:52:00,
2013-03-22 16:03:00,33.0,16.0,-100.00,SSE,165,4.0,9.0,49,0.00,,,-99.99,,2013-03-22 21:03:00,
2013-03-22 16:12:00,33.0,16.0,-100.00,SW,225,3.0,4.0,48,0.00,,,-99.99,,2013-03-22 21:12:00,
2013-03-22 16:22:00,34.0,16.0,-100.00,SSW,205,1.0,6.0,48,0.00,,,-99.99,,2013-03-22 21:22:00,
2013-03-22 16:32:00,34.0,16.0,-100.00,SSW,200,4.0,4.0,47,0.00,,,-99.99,,2013-03-22 21:32:00,
2013-03-22 16:42:00,34.0,16.0,-100.00,SSW,200,4.0,4.0,47,0.00,,,-99.99,,2013-03-22 21:42:00,
2013-03-22 16:52:00,33.0,14.0,-100.00,ENE,75,2.0,4.0,46,0.00,,,-99.99,,2013-03-22 21:52:00,
2013-03-22 17:03:00,33.0,14.0,-100.00,ENE,75,2.0,4.0,46,0.00,,,-99.99,,2013-03-22 22:03:00,
2013-03-22 17:12:00,34.0,15.0,-100.00,SW,230,3.0,4.0,46,0.00,,,-99.99,,2013-03-22 22:12:00,
2013-03-22 17:23:00,35.0,16.0,-100.00,East,95,0.0,6.0,45,0.00,,,-99.99,,2013-03-22 22:23:00,
2013-03-22 17:32:00,33.0,14.0,-100.00,East,85,4.0,6.0,44,0.00,,,-99.99,,2013-03-22 22:32:00,
2013-03-22 17:42:00,33.0,14.0,-100.00,East,85,4.0,6.0,44,0.00,,,-99.99,,2013-03-22 22:42:00,
2013-03-22 17:52:00,33.0,14.0,-100.00,West,275,2.0,2.0,44,0.00,,,-99.99,,2013-03-22 22:52:00,
2013-03-22 18:02:00,33.0,14.0,-100.00,West,275,2.0,2.0,44,0.00,,,-99.99,,2013-03-22 23:02:00,
2013-03-22 18:12:00,33.0,14.0,-100.00,WNW,300,3.0,4.0,44,0.00,,,-99.99,,2013-03-22 23:12:00,
2013-03-22 18:22:00,34.0,15.0,-100.00,SSE,165,4.0,6.0,46,0.00,,,-99.99,,2013-03-22 23:22:00,
2013-03-22 18:32:00,31.0,14.0,-100.00,East,90,3.0,6.0,48,0.00,,,-99.99,,2013-03-22 23:32:00,
2013-03-22 18:42:00,31.0,14.0,-100.00,East,90,3.0,6.0,48,0.00,,,-99.99,,2013-03-22 23:42:00,
2013-03-22 18:52:00,31.0,15.0,-100.00,SSE,150,2.0,4.0,49,0.00,,,-99.99,,2013-03-22 23:52:00,
2013-03-22 19:02:00,31.0,15.0,-100.00,SSE,150,2.0,4.0,49,0.00,,,-99.99,,2013-03-23 00:02:00,
2013-03-22 19:12:00,31.0,15.0,-100.00,ESE,110,2.0,4.0,49,0.00,,,-99.99,,2013-03-23 00:12:00,
2013-03-22 19:23:00,31.0,14.0,-100.00,East,85,4.0,6.0,50,0.00,,,-99.99,,2013-03-23 00:23:00,
2013-03-22 19:32:00,30.0,15.0,-100.00,East,95,4.0,9.0,52,0.00,,,-99.99,,2013-03-23 00:32:00,
2013-03-22 19:42:00,30.0,15.0,-100.00,East,95,4.0,9.0,52,0.00,,,-99.99,,2013-03-23 00:42:00,
2013-03-22 19:52:00,29.0,15.0,-100.00,East,100,3.0,7.0,54,0.00,,,-99.99,,2013-03-23 00:52:00,
2013-03-22 20:03:00,29.0,15.0,-100.00,East,100,3.0,7.0,54,0.00,,,-99.99,,2013-03-23 01:03:00,
2013-03-22 20:12:00,29.0,15.0,-100.00,East,80,4.0,7.0,55,0.00,,,-99.99,,2013-03-23 01:12:00,
2013-03-22 20:22:00,29.0,15.0,-100.00,East,90,4.0,6.0,55,0.00,,,-99.99,,2013-03-23 01:22:00,
2013-03-22 20:32:00,28.0,15.0,-100.00,East,85,4.0,5.0,57,0.00,,,-99.99,,2013-03-23 01:32:00,
2013-03-22 20:42:00,28.0,15.0,-100.00,East,85,4.0,5.0,57,0.00,,,-99.99,,2013-03-23 01:42:00,
2013-03-22 20:52:00,28.0,16.0,-100.00,ENE,70,4.0,7.0,59,0.00,,,-99.99,,2013-03-23 01:52:00,
2013-03-22 21:02:00,28.0,16.0,-100.00,ENE,70,4.0,7.0,59,0.00,,,-99.99,,2013-03-23 02:02:00,
2013-03-22 21:12:00,28.0,17.0,-100.00,East,90,4.0,7.0,61,0.00,,,-99.99,,2013-03-23 02:12:00,
2013-03-22 21:22:00,28.0,17.0,-100.00,East,85,4.0,7.0,62,0.00,,,-99.99,,2013-03-23 02:22:00,
2013-03-22 21:32:00,28.0,18.0,-100.00,ENE,70,5.0,7.0,64,0.00,,,-99.99,,2013-03-23 02:32:00,
2013-03-22 21:42:00,28.0,18.0,-100.00,ENE,70,5.0,7.0,64,0.00,,,-99.99,,2013-03-23 02:42:00,
2013-03-22 21:52:00,28.0,18.0,-100.00,ENE,75,5.0,7.0,65,0.00,,,-99.99,,2013-03-23 02:52:00,
2013-03-22 22:02:00,28.0,18.0,-100.00,ENE,75,5.0,7.0,65,0.00,,,-99.99,,2013-03-23 03:02:00,
2013-03-22 22:12:00,28.0,18.0,-100.00,East,80,4.0,7.0,65,0.00,,,-99.99,,2013-03-23 03:12:00,
2013-03-22 22:22:00,28.0,18.0,-100.00,East,90,5.0,7.0,65,0.00,,,-99.99,,2013-03-23 03:22:00,
2013-03-22 22:33:00,28.0,18.0,-100.00,ENE,75,4.0,7.0,65,0.00,,,-99.99,,2013-03-23 03:33:00,
2013-03-22 22:43:00,28.0,18.0,-100.00,ENE,75,4.0,7.0,65,0.00,,,-99.99,,2013-03-23 03:43:00,
2013-03-22 22:53:00,28.0,18.0,-100.00,ENE,75,3.0,4.0,66,0.00,,,-99.99,,2013-03-23 03:53:00,
2013-03-22 23:02:00,28.0,18.0,-100.00,ENE,75,3.0,4.0,66,0.00,,,-99.99,,2013-03-23 04:02:00,
2013-03-22 23:12:00,28.0,18.0,-100.00,ENE,65,3.0,4.0,66,0.00,,,-99.99,,2013-03-23 04:12:00,
2013-03-22 23:23:00,28.0,18.0,-100.00,East,90,4.0,6.0,67,0.00,,,-99.99,,2013-03-23 04:23:00,
2013-03-22 23:32:00,27.0,18.0,-100.00,East,80,4.0,6.0,67,0.00,,,-99.99,,2013-03-23 04:32:00,
2013-03-22 23:43:00,27.0,18.0,-100.00,East,80,4.0,6.0,67,0.00,,,-99.99,,2013-03-23 04:43:00,
2013-03-22 23:53:00,27.0,18.0,-100.00,ENE,70,4.0,7.0,68,0.00,,,-99.99,,2013-03-23 04:53:00,